Time,TemperatureF,DewpointF,PressureIn,WindDirection,WindDirectionDegrees,WindSpeedMPH,WindSpeedGustMPH,Humidity,HourlyPrecipIn,Conditions,Clouds,dailyrainin,SoftwareType,DateUTC
2013-04-17 00:02:00,53.0,43.0,30.15,WSW,253,0.0,0.0,68,0.00,,,0.00,,2013-04-17 07:02:00,
2013-04-17 00:22:00,51.0,42.0,30.15,WSW,253,0.0,0.0,71,0.00,,,0.00,,2013-04-17 07:22:00,
2013-04-17 00:32:00,51.0,42.0,30.16,WSW,253,0.0,0.0,71,0.00,,,0.00,,2013-04-17 07:32:00,
2013-04-17 00:42:00,51.0,42.0,30.16,WSW,253,0.0,0.0,71,0.00,,,0.00,,2013-04-17 07:42:00,
2013-04-17 00:52:00,51.0,42.0,30.16,WSW,253,0.0,0.0,72,0.00,,,0.00,,2013-04-17 07:52:00,
2013-04-17 01:02:00,51.0,43.0,30.17,WSW,253,0.0,0.0,73,0.00,,,0.00,,2013-04-17 08:02:00,
2013-04-17 01:11:00,51.0,43.0,30.18,WSW,253,0.0,0.0,73,0.00,,,0.00,,2013-04-17 08:11:00,
2013-04-17 01:12:00,51.0,43.0,30.17,WSW,253,0.0,0.0,73,0.00,,,0.00,,2013-04-17 08:12:00,
2013-04-17 01:21:00,51.0,43.0,30.18,WSW,253,0.0,0.0,73,0.00,,,0.00,,2013-04-17 08:21:00,
2013-04-17 01:32:00,51.0,43.0,30.18,WSW,253,0.0,0.0,73,0.00,,,0.00,,2013-04-17 08:32:00,
2013-04-17 01:42:00,51.0,43.0,30.18,WSW,253,0.0,0.0,73,0.00,,,0.00,,2013-04-17 08:42:00,
2013-04-17 01:52:00,51.0,43.0,30.18,WSW,253,0.0,0.0,73,0.00,,,0.00,,2013-04-17 08:52:00,
2013-04-17 02:01:00,51.0,43.0,30.18,WSW,253,0.0,0.0,73,0.00,,,0.00,,2013-04-17 09:01:00,
2013-04-17 02:22:00,50.0,42.0,30.18,WSW,253,0.0,0.0,74,0.00,,,0.00,,2013-04-17 09:22:00,
2013-04-17 02:33:00,50.0,42.0,30.18,WSW,253,0.0,0.0,74,0.00,,,0.00,,2013-04-17 09:33:00,
2013-04-17 02:42:00,50.0,42.0,30.18,WSW,253,0.0,0.0,74,0.00,,,0.00,,2013-04-17 09:42:00,
2013-04-17 02:52:00,50.0,42.0,30.18,WSW,253,0.0,0.0,74,0.00,,,0.00,,2013-04-17 09:52:00,
2013-04-17 03:02:00,48.0,41.0,30.18,WSW,253,0.0,0.0,76,0.00,,,0.00,,2013-04-17 10:02:00,
2013-04-17 03:12:00,48.0,41.0,30.18,WSW,253,0.0,0.0,76,0.00,,,0.00,,2013-04-17 10:12:00,
2013-04-17 03:23:00,48.0,41.0,30.18,WSW,253,0.0,0.0,76,0.00,,,0.00,,2013-04-17 10:23:00,
2013-04-17 03:32:00,48.0,41.0,30.18,WSW,253,0.0,0.0,76,0.00,,,0.00,,2013-04-17 10:32:00,
2013-04-17 03:43:00,48.0,41.0,30.18,WSW,253,0.0,0.0,76,0.00,,,0.00,,2013-04-17 10:43:00,
2013-04-17 03:52:00,47.0,39.0,30.19,WSW,253,0.0,0.0,75,0.00,,,0.00,,2013-04-17 10:52:00,
2013-04-17 04:02:00,47.0,40.0,30.19,WSW,253,0.0,0.0,76,0.00,,,0.00,,2013-04-17 11:02:00,
2013-04-17 04:11:00,47.0,40.0,30.19,WSW,253,0.0,0.0,76,0.00,,,0.00,,2013-04-17 11:11:00,
2013-04-17 04:21:00,47.0,40.0,30.19,WSW,253,0.0,0.0,76,0.00,,,0.00,,2013-04-17 11:21:00,
2013-04-17 04:31:00,47.0,40.0,30.19,WSW,253,0.0,0.0,77,0.00,,,0.00,,2013-04-17 11:31:00,
2013-04-17 04:42:00,47.0,40.0,30.19,WSW,253,0.0,0.0,77,0.00,,,0.00,,2013-04-17 11:42:00,
2013-04-17 04:52:00,47.0,40.0,30.19,WSW,253,0.0,0.0,77,0.00,,,0.00,,2013-04-17 11:52:00,
2013-04-17 05:02:00,47.0,40.0,30.19,WSW,253,0.0,0.0,77,0.00,,,0.00,,2013-04-17 12:02:00,
2013-04-17 05:12:00,47.0,40.0,30.19,WSW,253,0.0,0.0,77,0.00,,,0.00,,2013-04-17 12:12:00,
2013-04-17 05:22:00,46.0,39.0,30.20,WSW,253,0.0,0.0,77,0.00,,,0.00,,2013-04-17 12:22:00,
2013-04-17 05:32:00,46.0,40.0,30.20,WSW,253,0.0,0.0,78,0.00,,,0.00,,2013-04-17 12:32:00,
2013-04-17 05:42:00,46.0,40.0,30.20,WSW,253,0.0,0.0,78,0.00,,,0.00,,2013-04-17 12:42:00,
2013-04-17 05:51:00,46.0,39.0,30.20,WSW,253,0.0,0.0,77,0.00,,,0.00,,2013-04-17 12:51:00,
2013-04-17 06:02:00,45.0,39.0,30.21,WSW,253,0.0,0.0,78,0.00,,,0.00,,2013-04-17 13:02:00,
2013-04-17 06:11:00,45.0,39.0,30.21,WSW,253,0.0,0.0,78,0.00,,,0.00,,2013-04-17 13:11:00,
2013-04-17 06:21:00,45.0,39.0,30.21,WSW,253,0.0,0.0,78,0.00,,,0.00,,2013-04-17 13:21:00,
2013-04-17 06:32:00,45.0,39.0,30.21,WSW,253,0.0,0.0,78,0.00,,,0.00,,2013-04-17 13:32:00,
2013-04-17 06:41:00,45.0,39.0,30.21,WSW,253,0.0,0.0,78,0.00,,,0.00,,2013-04-17 13:41:00,
2013-04-17 06:52:00,44.0,38.0,30.21,WSW,253,0.0,0.0,78,0.00,,,0.00,,2013-04-17 13:52:00,
2013-04-17 07:02:00,44.0,38.0,30.21,WSW,253,0.0,0.0,78,0.00,,,0.00,,2013-04-17 14:02:00,
2013-04-17 07:12:00,44.0,38.0,30.21,WSW,253,0.0,0.0,78,0.00,,,0.00,,2013-04-17 14:12:00,
2013-04-17 07:21:00,44.0,37.0,30.23,WSW,253,0.0,0.0,77,0.00,,,0.00,,2013-04-17 14:21:00,
2013-04-17 07:32:00,44.0,37.0,30.23,WSW,253,0.0,0.0,77,0.00,,,0.00,,2013-04-17 14:32:00,
2013-04-17 07:42:00,46.0,39.0,30.24,WSW,253,0.0,0.0,77,0.00,,,0.00,,2013-04-17 14:42:00,
2013-04-17 07:52:00,46.0,39.0,30.24,WSW,253,0.0,0.0,77,0.00,,,0.00,,2013-04-17 14:52:00,
2013-04-17 08:01:00,46.0,39.0,30.24,WSW,253,0.0,0.0,77,0.00,,,0.00,,2013-04-17 15:01:00,
2013-04-17 08:12:00,46.0,39.0,30.24,WSW,253,0.0,0.0,77,0.00,,,0.00,,2013-04-17 15:12:00,
2013-04-17 08:33:00,50.0,42.0,30.26,SW,236,0.0,0.0,73,0.00,,,0.00,,2013-04-17 15:33:00,
2013-04-17 08:42:00,50.0,42.0,30.26,SW,236,0.0,0.0,73,0.00,,,0.00,,2013-04-17 15:42:00,
2013-04-17 08:53:00,52.0,42.0,30.26,SW,236,0.0,0.0,69,0.00,,,0.00,,2013-04-17 15:53:00,
2013-04-17 09:03:00,53.0,43.0,30.26,SW,236,0.0,0.0,68,0.00,,,0.00,,2013-04-17 16:03:00,
2013-04-17 09:12:00,55.0,41.0,30.26,SW,218,0.0,0.0,59,0.00,,,0.00,,2013-04-17 16:12:00,
2013-04-17 09:22:00,55.0,41.0,30.26,SW,218,0.0,0.0,59,0.00,,,0.00,,2013-04-17 16:22:00,
2013-04-17 09:32:00,56.0,40.0,30.26,SW,218,0.0,0.0,55,0.00,,,0.00,,2013-04-17 16:32:00,
2013-04-17 09:41:00,56.0,40.0,30.26,SW,218,0.0,0.0,55,0.00,,,0.00,,2013-04-17 16:41:00,
2013-04-17 09:52:00,57.0,40.0,30.26,SW,218,0.0,0.0,52,0.00,,,0.00,,2013-04-17 16:52:00,
2013-04-17 10:02:00,58.0,39.0,30.26,SW,235,0.0,0.0,49,0.00,,,0.00,,2013-04-17 17:02:00,
2013-04-17 10:11:00,58.0,39.0,30.26,SW,235,0.0,0.0,49,0.00,,,0.00,,2013-04-17 17:11:00,
2013-04-17 10:22:00,59.0,37.0,30.26,West,277,4.0,5.0,44,0.00,,,0.00,,2013-04-17 17:22:00,
2013-04-17 10:32:00,59.0,37.0,30.26,West,277,4.0,5.0,44,0.00,,,0.00,,2013-04-17 17:32:00,
2013-04-17 10:42:00,59.0,37.0,30.26,West,277,4.0,5.0,44,0.00,,,0.00,,2013-04-17 17:42:00,
2013-04-17 10:51:00,60.0,33.0,30.25,NW,314,4.0,0.0,36,0.00,,,0.00,,2013-04-17 17:51:00,
2013-04-17 11:02:00,60.0,32.0,30.26,West,270,5.0,5.0,34,0.00,,,0.00,,2013-04-17 18:02:00,
2013-04-17 11:12:00,60.0,32.0,30.26,West,270,5.0,5.0,34,0.00,,,0.00,,2013-04-17 18:12:00,
2013-04-17 11:21:00,60.0,32.0,30.26,West,270,5.0,5.0,34,0.00,,,0.00,,2013-04-17 18:21:00,
2013-04-17 11:32:00,63.0,31.0,30.25,NW,311,7.0,7.0,30,0.00,,,0.00,,2013-04-17 18:32:00,
2013-04-17 11:42:00,63.0,31.0,30.25,NW,311,7.0,7.0,30,0.00,,,0.00,,2013-04-17 18:42:00,
2013-04-17 11:52:00,63.0,29.0,30.25,West,274,6.0,11.0,28,0.00,,,0.00,,2013-04-17 18:52:00,
2013-04-17 12:02:00,64.0,29.0,30.25,West,280,7.0,7.0,27,0.00,,,0.00,,2013-04-17 19:02:00,
2013-04-17 12:11:00,64.0,29.0,30.25,West,280,7.0,7.0,27,0.00,,,0.00,,2013-04-17 19:11:00,
2013-04-17 12:21:00,65.0,29.0,30.24,North,359,4.0,7.0,26,0.00,,,0.00,,2013-04-17 19:21:00,
2013-04-17 12:32:00,66.0,31.0,30.24,West,259,9.0,9.0,27,0.00,,,0.00,,2013-04-17 19:32:00,
2013-04-17 12:41:00,65.0,35.0,30.24,WSW,239,11.0,13.0,33,0.00,,,0.00,,2013-04-17 19:41:00,
2013-04-17 12:52:00,65.0,35.0,30.24,WSW,239,11.0,13.0,33,0.00,,,0.00,,2013-04-17 19:52:00,
2013-04-17 13:02:00,65.0,32.0,30.23,West,267,13.0,14.0,29,0.00,,,0.00,,2013-04-17 20:02:00,
2013-04-17 13:12:00,65.0,32.0,30.23,West,267,13.0,14.0,29,0.00,,,0.00,,2013-04-17 20:12:00,
2013-04-17 13:21:00,66.0,33.0,30.22,West,266,8.0,14.0,29,0.00,,,0.00,,2013-04-17 20:21:00,
2013-04-17 13:31:00,66.0,31.0,30.22,WNW,300,9.0,9.0,27,0.00,,,0.00,,2013-04-17 20:31:00,
2013-04-17 13:41:00,66.0,31.0,30.22,WNW,300,9.0,9.0,27,0.00,,,0.00,,2013-04-17 20:41:00,
2013-04-17 13:52:00,67.0,32.0,30.22,SW,229,9.0,11.0,27,0.00,,,0.00,,2013-04-17 20:52:00,
2013-04-17 14:02:00,67.0,37.0,30.21,West,264,10.0,10.0,33,0.00,,,0.00,,2013-04-17 21:02:00,
2013-04-17 14:11:00,67.0,37.0,30.21,West,264,10.0,10.0,33,0.00,,,0.00,,2013-04-17 21:11:00,
2013-04-17 14:22:00,67.0,38.0,30.21,SW,226,10.0,10.0,35,0.00,,,0.00,,2013-04-17 21:22:00,
2013-04-17 14:32:00,67.0,38.0,30.21,West,260,14.0,14.0,34,0.00,,,0.00,,2013-04-17 21:32:00,
2013-04-17 14:42:00,67.0,36.0,30.21,WSW,249,9.0,9.0,32,0.00,,,0.00,,2013-04-17 21:42:00,
2013-04-17 14:53:00,67.0,36.0,30.21,WSW,249,9.0,9.0,32,0.00,,,0.00,,2013-04-17 21:53:00,
2013-04-17 15:02:00,67.0,36.0,30.20,WNW,284,13.0,13.0,32,0.00,,,0.00,,2013-04-17 22:02:00,
2013-04-17 15:12:00,67.0,36.0,30.19,West,263,12.0,12.0,32,0.00,,,0.00,,2013-04-17 22:12:00,
2013-04-17 15:22:00,67.0,36.0,30.19,West,263,12.0,12.0,32,0.00,,,0.00,,2013-04-17 22:22:00,
2013-04-17 15:32:00,68.0,39.0,30.19,WSW,256,7.0,13.0,35,0.00,,,0.00,,2013-04-17 22:32:00,
2013-04-17 15:42:00,68.0,39.0,30.19,WSW,256,7.0,13.0,35,0.00,,,0.00,,2013-04-17 22:42:00,
2013-04-17 15:53:00,68.0,39.0,30.19,WSW,256,7.0,13.0,35,0.00,,,0.00,,2013-04-17 22:53:00,
2013-04-17 16:02:00,66.0,39.0,30.19,WSW,248,9.0,20.0,37,0.00,,,0.00,,2013-04-17 23:02:00,
2013-04-17 16:12:00,66.0,39.0,30.19,WSW,248,9.0,20.0,37,0.00,,,0.00,,2013-04-17 23:12:00,
2013-04-17 16:22:00,66.0,39.0,30.19,WSW,248,9.0,20.0,37,0.00,,,0.00,,2013-04-17 23:22:00,
2013-04-17 16:32:00,66.0,40.0,30.18,West,269,11.0,14.0,38,0.00,,,0.00,,2013-04-17 23:32:00,
2013-04-17 16:42:00,67.0,28.0,30.17,West,264,10.0,10.0,23,0.00,,,0.00,,2013-04-17 23:42:00,
2013-04-17 16:52:00,67.0,28.0,30.17,West,264,10.0,10.0,23,0.00,,,0.00,,2013-04-17 23:52:00,
2013-04-17 17:02:00,67.0,41.0,30.17,West,267,11.0,15.0,38,0.00,,,0.00,,2013-04-18 00:02:00,
2013-04-17 17:12:00,66.0,39.0,30.17,WSW,252,11.0,11.0,37,0.00,,,0.00,,2013-04-18 00:12:00,
2013-04-17 17:21:00,66.0,39.0,30.17,WSW,252,11.0,11.0,37,0.00,,,0.00,,2013-04-18 00:21:00,
2013-04-17 17:32:00,66.0,41.0,30.17,WSW,245,3.0,8.0,40,0.00,,,0.00,,2013-04-18 00:32:00,
2013-04-17 17:42:00,66.0,41.0,30.17,WSW,256,9.0,14.0,40,0.00,,,0.00,,2013-04-18 00:42:00,
2013-04-17 17:52:00,66.0,41.0,30.17,WSW,256,9.0,14.0,40,0.00,,,0.00,,2013-04-18 00:52:00,
2013-04-17 18:01:00,66.0,41.0,30.17,West,260,10.0,10.0,40,0.00,,,0.00,,2013-04-18 01:01:00,
2013-04-17 18:11:00,66.0,41.0,30.18,SSW,198,3.0,0.0,40,0.00,,,0.00,,2013-04-18 01:11:00,
2013-04-17 18:21:00,66.0,41.0,30.18,SSW,198,3.0,0.0,40,0.00,,,0.00,,2013-04-18 01:21:00,
2013-04-17 18:32:00,66.0,41.0,30.18,SSW,198,3.0,0.0,40,0.00,,,0.00,,2013-04-18 01:32:00,
2013-04-17 18:42:00,64.0,42.0,30.19,WSW,253,5.0,5.0,44,0.00,,,0.00,,2013-04-18 01:42:00,
2013-04-17 18:52:00,64.0,42.0,30.19,WSW,253,5.0,5.0,44,0.00,,,0.00,,2013-04-18 01:52:00,
2013-04-17 19:02:00,64.0,42.0,30.19,WSW,253,5.0,5.0,44,0.00,,,0.00,,2013-04-18 02:02:00,
2013-04-17 19:12:00,62.0,42.0,30.19,SSW,203,7.0,7.0,47,0.00,,,0.00,,2013-04-18 02:12:00,
2013-04-17 19:22:00,62.0,42.0,30.19,SSW,203,7.0,7.0,47,0.00,,,0.00,,2013-04-18 02:22:00,
2013-04-17 19:31:00,62.0,42.0,30.20,SSE,152,0.0,0.0,48,0.00,,,0.00,,2013-04-18 02:31:00,
2013-04-17 19:42:00,62.0,42.0,30.20,SSE,152,0.0,0.0,48,0.00,,,0.00,,2013-04-18 02:42:00,
2013-04-17 19:52:00,62.0,42.0,30.20,SSE,152,0.0,0.0,48,0.00,,,0.00,,2013-04-18 02:52:00,
2013-04-17 20:01:00,60.0,42.0,30.20,SSW,205,2.0,4.0,51,0.00,,,0.00,,2013-04-18 03:01:00,
2013-04-17 20:11:00,60.0,42.0,30.21,South,187,4.0,4.0,51,0.00,,,0.00,,2013-04-18 03:11:00,
2013-04-17 20:21:00,60.0,42.0,30.21,South,187,4.0,4.0,51,0.00,,,0.00,,2013-04-18 03:21:00,
2013-04-17 20:33:00,60.0,42.0,30.21,South,187,4.0,4.0,51,0.00,,,0.00,,2013-04-18 03:33:00,
2013-04-17 20:42:00,59.0,41.0,30.22,SSW,203,0.0,0.0,52,0.00,,,0.00,,2013-04-18 03:42:00,
2013-04-17 20:53:00,59.0,41.0,30.22,SSW,203,0.0,0.0,52,0.00,,,0.00,,2013-04-18 03:53:00,
2013-04-17 21:03:00,59.0,41.0,30.22,SSW,203,0.0,0.0,52,0.00,,,0.00,,2013-04-18 04:03:00,
2013-04-17 21:13:00,59.0,41.0,30.22,SSW,203,0.0,0.0,52,0.00,,,0.00,,2013-04-18 04:13:00,
2013-04-17 21:23:00,59.0,41.0,30.23,SSW,203,0.0,0.0,52,0.00,,,0.00,,2013-04-18 04:23:00,
2013-04-17 21:32:00,59.0,42.0,30.24,SSW,203,0.0,0.0,53,0.00,,,0.00,,2013-04-18 04:32:00,
2013-04-17 21:42:00,58.0,41.0,30.24,SSW,203,0.0,0.0,54,0.00,,,0.00,,2013-04-18 04:42:00,
2013-04-17 21:52:00,58.0,41.0,30.24,SSW,203,0.0,0.0,54,0.00,,,0.00,,2013-04-18 04:52:00,
2013-04-17 22:02:00,57.0,41.0,30.25,SSW,203,0.0,0.0,55,0.00,,,0.00,,2013-04-18 05:02:00,
2013-04-17 22:12:00,57.0,41.0,30.25,SSW,203,0.0,0.0,56,0.00,,,0.00,,2013-04-18 05:12:00,
2013-04-17 22:21:00,57.0,41.0,30.25,SSW,203,0.0,0.0,56,0.00,,,0.00,,2013-04-18 05:21:00,
2013-04-17 22:32:00,57.0,42.0,30.26,SSW,203,0.0,0.0,57,0.00,,,0.00,,2013-04-18 05:32:00,
2013-04-17 22:42:00,56.0,41.0,30.25,SSW,203,0.0,0.0,58,0.00,,,0.00,,2013-04-18 05:42:00,
2013-04-17 22:52:00,56.0,41.0,30.25,SSW,203,0.0,0.0,58,0.00,,,0.00,,2013-04-18 05:52:00,
2013-04-17 23:02:00,56.0,41.0,30.25,SSW,203,0.0,0.0,58,0.00,,,0.00,,2013-04-18 06:02:00,
2013-04-17 23:12:00,55.0,41.0,30.25,SSW,203,0.0,0.0,58,0.00,,,0.00,,2013-04-18 06:12:00,
2013-04-17 23:21:00,55.0,41.0,30.25,SSW,203,0.0,0.0,58,0.00,,,0.00,,2013-04-18 06:21:00,
2013-04-17 23:31:00,55.0,41.0,30.25,SSW,203,0.0,0.0,59,0.00,,,0.00,,2013-04-18 06:31:00,
2013-04-17 23:41:00,55.0,41.0,30.25,SSW,203,0.0,0.0,60,0.00,,,0.00,,2013-04-18 06:41:00,
2013-04-17 23:51:00,55.0,41.0,30.25,SSW,203,0.0,0.0,60,0.00,,,0.00,,2013-04-18 06:51:00,